UAL166E EDDM-LTFM

Flight info

Callsign UAL166E
Flight time N/A
Altitude 29000
Route ROTAX3S/26L ROTAX L603 LATLO DCT OBEDI/N0495F330 DCT BEDOX/N0479F390 DCT ADULA DCT ETIDA T390 RILEX RILEX1A/35R
Aircraft B78X/H-SDE1E2E3FGHIJ2J3J4J5M1RWXY/LB1D1

Departure

Time N/A
Airport Munich Airport (EDDM)

Arrival

Time 2026-05-06 20:12
Airport İstanbul Airport (LTFM)
Time Latitude Longitude Altitude Speed Heading
2026-05-06 19:45 42.39849 26.59025 24802 ft 430 kts 26°
2026-05-06 19:45 42.42363 26.61223 24801 ft 432 kts 34°
2026-05-06 19:45 42.44595 26.63966 24807 ft 436 kts 44°
2026-05-06 19:45 42.46483 26.67200 24802 ft 441 kts 53°
2026-05-06 19:46 42.47893 26.70912 24819 ft 448 kts 66°
2026-05-06 19:46 42.48494 26.75022 24815 ft 459 kts 85°
2026-05-06 19:46 42.48041 26.79316 24819 ft 469 kts 106°
2026-05-06 19:46 42.46259 26.83024 24828 ft 478 kts 132°
2026-05-06 19:47 42.43703 26.85924 24833 ft 482 kts 144°
2026-05-06 19:47 42.40749 26.88068 24828 ft 484 kts 158°
2026-05-06 19:47 42.37515 26.89322 24827 ft 484 kts 171°
2026-05-06 19:47 42.34165 26.89621 24825 ft 483 kts 184°
2026-05-06 19:48 42.30854 26.88954 24826 ft 480 kts 197°
2026-05-06 19:48 42.27686 26.87412 24824 ft 491 kts 204°
2026-05-06 19:48 42.24362 26.86025 24816 ft 509 kts 196°
2026-05-06 19:48 42.20859 26.84972 24817 ft 524 kts 193°
2026-05-06 19:49 42.17256 26.83999 24812 ft 530 kts 193°
2026-05-06 19:49 42.13685 26.82801 24812 ft 528 kts 198°
2026-05-06 19:49 42.10222 26.81376 24804 ft 527 kts 199°
2026-05-06 19:49 42.06709 26.79997 24801 ft 526 kts 197°
2026-05-06 19:50 42.03156 26.78800 24803 ft 527 kts 195°
2026-05-06 19:50 41.99574 26.77717 24801 ft 531 kts 191°
2026-05-06 19:50 41.95879 26.77437 24795 ft 533 kts 179°
2026-05-06 19:50 41.92206 26.78093 24788 ft 534 kts 167°
2026-05-06 19:51 41.88685 26.79662 24790 ft 534 kts 156°
2026-05-06 19:51 41.85449 26.82082 24794 ft 533 kts 144°
2026-05-06 19:51 41.82616 26.85264 24800 ft 531 kts 133°
2026-05-06 19:51 41.80295 26.89079 24801 ft 527 kts 121°
2026-05-06 19:52 41.78282 26.93175 24815 ft 528 kts 125°
2026-05-06 19:52 41.75813 26.96858 24806 ft 533 kts 133°
2026-05-06 19:52 41.73138 27.00198 24803 ft 534 kts 136°
2026-05-06 19:52 41.70520 27.03700 24803 ft 531 kts 128°
2026-05-06 19:53 41.68356 27.07691 24720 ft 529 kts 121°
2026-05-06 19:53 41.66436 27.11878 24252 ft 525 kts 117°
2026-05-06 19:53 41.64613 27.16071 23812 ft 518 kts 117°
2026-05-06 19:53 41.62716 27.20112 23293 ft 509 kts 122°
2026-05-06 19:54 41.60621 27.23880 22758 ft 501 kts 126°
2026-05-06 19:54 41.58473 27.27502 22206 ft 494 kts 125°
2026-05-06 19:54 41.56483 27.31137 21704 ft 488 kts 122°
2026-05-06 19:54 41.54584 27.34855 21189 ft 483 kts 122°
2026-05-06 19:55 41.52654 27.38498 20682 ft 477 kts 123°
2026-05-06 19:55 41.50695 27.42022 20188 ft 469 kts 124°
2026-05-06 19:55 41.48780 27.45504 19698 ft 463 kts 123°
2026-05-06 19:55 41.46916 27.48986 19240 ft 458 kts 123°
2026-05-06 19:56 41.45068 27.52429 18749 ft 454 kts 123°
2026-05-06 19:56 41.43220 27.55815 18274 ft 450 kts 124°
2026-05-06 19:56 41.41382 27.59172 17741 ft 446 kts 124°
2026-05-06 19:56 41.39596 27.62457 17229 ft 442 kts 123°
2026-05-06 19:57 41.37800 27.65764 16711 ft 439 kts 123°
2026-05-06 19:57 41.36017 27.69032 16189 ft 435 kts 124°
2026-05-06 19:57 41.34252 27.72255 15713 ft 426 kts 124°
2026-05-06 19:57 41.32526 27.75410 15203 ft 419 kts 123°
2026-05-06 19:58 41.30824 27.78525 14720 ft 414 kts 123°
2026-05-06 19:58 41.29138 27.81604 14245 ft 410 kts 124°
2026-05-06 19:58 41.27467 27.84649 13807 ft 406 kts 124°
2026-05-06 19:58 41.25808 27.87669 13501 ft 403 kts 124°
2026-05-06 19:59 41.24179 27.90635 13242 ft 402 kts 124°
2026-05-06 19:59 41.22531 27.93633 12979 ft 401 kts 124°
2026-05-06 19:59 41.20887 27.96619 12729 ft 400 kts 124°
2026-05-06 19:59 41.19248 27.99591 12469 ft 398 kts 124°
2026-05-06 20:00 41.17612 28.02558 12216 ft 397 kts 124°
2026-05-06 20:00 41.15981 28.05513 11789 ft 396 kts 124°
2026-05-06 20:00 41.14358 28.08447 11301 ft 393 kts 124°
2026-05-06 20:00 41.12751 28.11352 10812 ft 388 kts 124°
2026-05-06 20:01 41.11170 28.14206 10318 ft 380 kts 124°
2026-05-06 20:01 41.09620 28.17002 9824 ft 372 kts 124°
2026-05-06 20:01 41.08104 28.19735 9366 ft 364 kts 124°
2026-05-06 20:01 41.06621 28.22406 8900 ft 356 kts 124°
2026-05-06 20:02 41.05169 28.25020 8463 ft 348 kts 124°
2026-05-06 20:02 41.03753 28.27564 8180 ft 337 kts 124°
2026-05-06 20:02 41.02404 28.29986 7923 ft 326 kts 124°
2026-05-06 20:02 41.01080 28.32363 7643 ft 316 kts 124°
2026-05-06 20:03 40.99797 28.34667 7351 ft 309 kts 124°
2026-05-06 20:03 40.98532 28.36936 7080 ft 303 kts 123°
2026-05-06 20:03 40.97662 28.39383 6810 ft 291 kts 96°
2026-05-06 20:03 40.97530 28.42029 6560 ft 287 kts 86°
2026-05-06 20:04 40.97555 28.44662 6302 ft 286 kts 84°
2026-05-06 20:04 40.97598 28.47292 5979 ft 285 kts 86°
2026-05-06 20:04 40.97602 28.49898 5682 ft 281 kts 87°
2026-05-06 20:04 40.97595 28.52473 5412 ft 279 kts 87°
2026-05-06 20:05 40.97597 28.55036 5187 ft 278 kts 87°
2026-05-06 20:05 40.97603 28.57593 4951 ft 277 kts 87°
2026-05-06 20:05 40.97606 28.60106 4725 ft 277 kts 88°
2026-05-06 20:05 40.97607 28.62643 4502 ft 275 kts 88°
2026-05-06 20:06 40.97608 28.65174 4265 ft 274 kts 88°
2026-05-06 20:06 40.97608 28.67691 4039 ft 272 kts 88°
2026-05-06 20:06 40.97630 28.70155 4005 ft 266 kts 82°
2026-05-06 20:06 40.98334 28.72320 4025 ft 258 kts 41°
2026-05-06 20:07 40.99917 28.73376 4694 ft 265 kts 12°
2026-05-06 20:07 41.01832 28.73526 4846 ft 268 kts 354°
2026-05-06 20:07 41.03626 28.73345 4848 ft 260 kts 352°
2026-05-06 20:07 41.05408 28.73209 4525 ft 248 kts 355°
2026-05-06 20:08 41.07080 28.73172 4187 ft 235 kts 356°
2026-05-06 20:08 41.08671 28.73138 3829 ft 229 kts 356°
2026-05-06 20:08 41.10250 28.73105 3483 ft 226 kts 357°
2026-05-06 20:08 41.11824 28.73071 3165 ft 226 kts 357°
2026-05-06 20:09 41.13394 28.73040 2873 ft 225 kts 358°
2026-05-06 20:09 41.14950 28.73014 2561 ft 220 kts 358°
2026-05-06 20:09 41.16432 28.72984 2280 ft 206 kts 358°
2026-05-06 20:09 41.17801 28.72956 2003 ft 188 kts 358°
2026-05-06 20:10 41.19095 28.72929 1754 ft 185 kts 358°
2026-05-06 20:10 41.20365 28.72901 1497 ft 178 kts 359°
2026-05-06 20:10 41.21545 28.72876 1284 ft 167 kts 359°
2026-05-06 20:10 41.22698 28.72852 1047 ft 167 kts
2026-05-06 20:11 41.23851 28.72832 784 ft 163 kts
2026-05-06 20:11 41.24943 28.72804 472 ft 158 kts
2026-05-06 20:11 41.26013 28.72767 251 ft 147 kts
2026-05-06 20:11 41.26941 28.72760 182 ft 113 kts 358°
2026-05-06 20:12 41.27565 28.72739 181 ft 68 kts 360°
2026-05-06 20:12 41.27936 28.72762 183 ft 47 kts 17°
2026-05-06 20:12 41.28107 28.72869 182 ft 0 kts 29°
2026-05-06 20:14 41.28110 28.72871 182 ft 3 kts 29°
2026-05-06 20:14 41.28150 28.72927 182 ft 10 kts 67°
2026-05-06 20:14 41.28141 28.72958 182 ft 2 kts 146°
2026-05-06 20:14 41.28084 28.72966 182 ft 23 kts 177°
2026-05-06 20:15 41.27917 28.72971 182 ft 24 kts 179°
2026-05-06 20:15 41.27753 28.72974 182 ft 23 kts 179°
2026-05-06 20:15 41.27615 28.72977 182 ft 10 kts 179°
2026-05-06 20:15 41.27571 28.72978 182 ft 0 kts 179°
2026-05-06 20:16 41.27535 28.72979 182 ft 18 kts 179°
2026-05-06 20:16 41.27408 28.72983 182 ft 18 kts 179°
2026-05-06 20:16 41.27290 28.72987 182 ft 17 kts 178°
2026-05-06 20:16 41.27175 28.72990 182 ft 16 kts 179°
2026-05-06 20:17 41.27065 28.72992 182 ft 16 kts 179°
2026-05-06 20:17 41.26966 28.73017 182 ft 13 kts 137°
2026-05-06 20:17 41.26947 28.73122 182 ft 12 kts 90°
2026-05-06 20:17 41.26947 28.73230 182 ft 12 kts 89°
2026-05-06 20:18 41.26948 28.73337 182 ft 11 kts 89°
2026-05-06 20:18 41.26949 28.73438 182 ft 11 kts 89°
2026-05-06 20:18 41.26950 28.73539 182 ft 12 kts 89°
2026-05-06 20:18 41.26951 28.73656 182 ft 13 kts 89°
2026-05-06 20:19 41.26952 28.73780 182 ft 14 kts 89°
2026-05-06 20:19 41.26908 28.73861 183 ft 11 kts 161°
2026-05-06 20:19 41.26816 28.73873 183 ft 3 kts 177°
2026-05-06 20:19 41.26797 28.73869 183 ft 2 kts 197°
2026-05-06 20:20 41.26792 28.73863 183 ft 1 kts 218°
2026-05-06 20:20 41.26783 28.73823 182 ft 6 kts 258°
2026-05-06 20:20 41.26781 28.73772 182 ft 5 kts 269°
2026-05-06 20:20 41.26780 28.73749 182 ft 1 kts 268°
2026-05-06 20:21 41.26780 28.73743 182 ft 0 kts 268°
2026-05-06 20:21 41.26780 28.73742 182 ft 0 kts 268°